カタログに戻る

COSMOS 1275 DEB

運用中PO
NORAD 13817·DEBRIS·🇷🇺 Russia

打ち上げ Jun 4, 1981 から Plesetsk Cosmodrome

Loading…

次のパス (今後24時間)

TLE

最新Source: Space-Track

元期: Sep 14, 2026, 02:51 UTC

1 13817U 81053HM  26257.11877083  .00001195  00000-0  69122-3 0  9993
2 13817  82.9408 207.6333 0023066  91.3730 269.0087 14.08072653268483

AllMySatでCOSMOS 1275 DEBをリアルタイム追跡

Download on the App Store